Starlink 31908

operational
NORAD ID: 59901 Int'l Des: 2024-100 Owner: SPXS Country: US Constellation: starlink
LEOCIRCULAR

Starlink 31908について

説明を読み込み中...

リアルタイム位置

3D地球を読み込み中...

次回通過

高度履歴

Altitude vs Time

uPlot chart will show altitude changes over time

軌道要素

1 59901U 24100S 25306.48242730 .00003060 00000-0 12071-3 0 9990
2 59901 43.0029 116.7442 0001583 274.2005 85.8665 15.27567418 81773
Epoch: Nov 2, 2025 • Age: 35 hours

現在のステータス

高度 487.3 km
速度 7.63 km/s
衛星直下点 43.03°N, 177.13°W
打ち上げ日 May 28, 2024
運用期間 1.4 years
タイプ internet

技術仕様

分類 Payload
質量 730.00 kg
乾燥質量 700.00 kg
総質量 730.00 kg
長さ 0.30 m
直径 4.10 m
スパン 29.00 m
形状 Box + pan
製造者 SPXS
バスタイプ Starlink V2M
フェーズステータス In Orbit
所有者/国 SPXS/US

大規模コンステレーション

Loading constellations...